User: anonymous
Location: Hepcat Sky Observatory
(29.9800°N, 95.6500°W)
Time: 05:10:19
(UTC-05:00)
Language:

Cosmos 1602 Rocket - Orbit

View from above orbital plane
View from above orbital plane
View from above satellite
View from above satellite

Ground track
Ground track

The orbit data is extracted from the following two-line orbital elements,

1 15332U 84105B   14242.05635531  .00000329  00000-0  37615-4 0  7328
2 15332 082.5329 063.2321 0022720 137.9866 359.3513 14.82763348615080
Epoch (UTC): 30 August 2014 01:21:09
Eccentricity: 0.0022720
inclination: 82.5329°
perigee height: 605 km
apogee height: 636 km
right ascension of ascending node: 63.2321°
argument of perigee: 137.9866°
revolutions per day: 14.82763348
mean anomaly at epoch: 359.3513°
orbit number at epoch: 61508

The dashed part of the orbit path shows where the satellite is in the earth's shadow,  

DLR